Year,Month,Day,Hour,Minute,Value (Times are PST for temperature in C)
2021,06,08,00,00,9.90
2021,06,08,00,01,9.80
2021,06,08,00,02,9.80
2021,06,08,00,03,9.80
2021,06,08,00,04,9.70
2021,06,08,00,05,9.70
2021,06,08,00,06,9.70
2021,06,08,00,07,9.70
2021,06,08,00,08,9.70
2021,06,08,00,09,9.70
2021,06,08,00,10,9.70
2021,06,08,00,11,9.70
2021,06,08,00,12,9.60
2021,06,08,00,13,9.60
2021,06,08,00,14,9.60
2021,06,08,00,15,9.60
2021,06,08,00,16,9.60
2021,06,08,00,17,9.60
2021,06,08,00,18,9.50
2021,06,08,00,19,9.50
2021,06,08,00,20,9.50
2021,06,08,00,21,9.40
2021,06,08,00,22,9.40
2021,06,08,00,23,9.30
2021,06,08,00,24,9.30
2021,06,08,00,25,9.20
2021,06,08,00,26,9.20
2021,06,08,00,27,9.20
2021,06,08,00,28,9.20
2021,06,08,00,29,9.20
2021,06,08,00,30,9.20
2021,06,08,00,31,9.20
2021,06,08,00,32,9.20
2021,06,08,00,33,9.20
2021,06,08,00,34,9.10
2021,06,08,00,35,9.10
2021,06,08,00,36,9.10
2021,06,08,00,37,9.10
2021,06,08,00,38,9.10
2021,06,08,00,39,9.00
2021,06,08,00,40,9.00
2021,06,08,00,41,9.00
2021,06,08,00,42,8.90
2021,06,08,00,43,8.90
2021,06,08,00,44,8.90
2021,06,08,00,45,8.90
2021,06,08,00,46,8.80
2021,06,08,00,47,8.80
2021,06,08,00,48,8.80
2021,06,08,00,49,8.80
2021,06,08,00,50,8.80
2021,06,08,00,51,8.70
2021,06,08,00,52,8.70
2021,06,08,00,53,8.70
2021,06,08,00,54,8.70
2021,06,08,00,55,8.70
2021,06,08,00,56,8.70
2021,06,08,00,57,8.70
2021,06,08,00,58,8.60
2021,06,08,00,59,8.60
2021,06,08,01,00,8.60
2021,06,08,01,01,8.50
2021,06,08,01,02,8.50
2021,06,08,01,03,8.50
2021,06,08,01,04,8.50
2021,06,08,01,05,8.50
2021,06,08,01,06,8.50
2021,06,08,01,07,8.50
2021,06,08,01,08,8.50
2021,06,08,01,09,8.50
2021,06,08,01,10,8.50
2021,06,08,01,11,8.50
2021,06,08,01,12,8.50
2021,06,08,01,13,8.40
2021,06,08,01,14,8.40
2021,06,08,01,15,8.40
2021,06,08,01,16,8.40
2021,06,08,01,17,8.30
2021,06,08,01,18,8.30
2021,06,08,01,19,8.30
2021,06,08,01,20,8.30
2021,06,08,01,21,8.20
2021,06,08,01,22,8.20
2021,06,08,01,23,8.20
2021,06,08,01,24,8.20
2021,06,08,01,25,8.20
2021,06,08,01,26,8.20
2021,06,08,01,27,8.10
2021,06,08,01,28,8.10
2021,06,08,01,29,8.10
2021,06,08,01,30,8.10
2021,06,08,01,31,8.00
2021,06,08,01,32,8.00
2021,06,08,01,33,8.00
2021,06,08,01,34,8.00
2021,06,08,01,35,8.00
2021,06,08,01,36,8.00
2021,06,08,01,37,8.00
2021,06,08,01,38,8.10
2021,06,08,01,39,8.10
2021,06,08,01,40,8.10
2021,06,08,01,41,8.10
2021,06,08,01,42,8.00
2021,06,08,01,43,8.00
2021,06,08,01,44,8.00
2021,06,08,01,45,8.00
2021,06,08,01,46,8.00
2021,06,08,01,47,8.00
2021,06,08,01,48,8.00
2021,06,08,01,49,8.00
2021,06,08,01,50,8.00
2021,06,08,01,51,8.00
2021,06,08,01,52,8.00
2021,06,08,01,53,8.00
2021,06,08,01,54,8.00
2021,06,08,01,55,8.00
2021,06,08,01,56,8.00
2021,06,08,01,57,8.00
2021,06,08,01,58,8.00
2021,06,08,01,59,8.00
2021,06,08,02,00,7.90
2021,06,08,02,01,7.90
2021,06,08,02,02,7.90
2021,06,08,02,03,7.90
2021,06,08,02,04,7.90
2021,06,08,02,05,7.90
2021,06,08,02,06,7.90
2021,06,08,02,07,7.90
2021,06,08,02,08,8.00
2021,06,08,02,09,8.00
2021,06,08,02,10,8.00
2021,06,08,02,11,8.00
2021,06,08,02,12,8.10
2021,06,08,02,13,8.10
2021,06,08,02,14,8.00
2021,06,08,02,15,8.00
2021,06,08,02,16,8.00
2021,06,08,02,17,8.00
2021,06,08,02,18,8.00
2021,06,08,02,19,8.00
2021,06,08,02,20,8.00
2021,06,08,02,21,8.00
2021,06,08,02,22,8.00
2021,06,08,02,23,8.00
2021,06,08,02,24,8.00
2021,06,08,02,25,8.00
2021,06,08,02,26,8.00
2021,06,08,02,27,8.00
2021,06,08,02,28,8.00
2021,06,08,02,29,8.00
2021,06,08,02,30,8.00
2021,06,08,02,31,8.00
2021,06,08,02,32,8.00
2021,06,08,02,33,8.00
2021,06,08,02,34,8.00
2021,06,08,02,35,8.00
2021,06,08,02,36,8.00
2021,06,08,02,37,8.00
2021,06,08,02,38,7.90
2021,06,08,02,39,7.90
2021,06,08,02,40,7.90
2021,06,08,02,41,7.90
2021,06,08,02,42,7.90
2021,06,08,02,43,7.90
2021,06,08,02,44,7.90
2021,06,08,02,45,7.90
2021,06,08,02,46,7.90
2021,06,08,02,47,7.90
2021,06,08,02,48,7.90
2021,06,08,02,49,7.90
2021,06,08,02,50,8.00
2021,06,08,02,51,8.00
2021,06,08,02,52,8.00
2021,06,08,02,53,8.00
2021,06,08,02,54,8.10
2021,06,08,02,55,8.10
2021,06,08,02,56,8.10
2021,06,08,02,57,8.00
2021,06,08,02,58,8.00
2021,06,08,02,59,8.00
2021,06,08,03,00,8.00
2021,06,08,03,01,8.00
2021,06,08,03,02,8.00
2021,06,08,03,03,8.00
2021,06,08,03,04,8.00
2021,06,08,03,05,8.00
2021,06,08,03,06,8.00
2021,06,08,03,07,7.90
2021,06,08,03,08,7.90
2021,06,08,03,09,7.90
2021,06,08,03,10,7.80
2021,06,08,03,11,7.80
2021,06,08,03,12,7.80
2021,06,08,03,13,7.80
2021,06,08,03,14,7.80
2021,06,08,03,15,7.80
2021,06,08,03,16,7.80
2021,06,08,03,17,7.80
2021,06,08,03,18,7.80
2021,06,08,03,19,7.80
2021,06,08,03,20,7.80
2021,06,08,03,21,7.90
2021,06,08,03,22,7.90
2021,06,08,03,23,7.90
2021,06,08,03,24,8.00
2021,06,08,03,25,8.10
2021,06,08,03,26,8.20
2021,06,08,03,27,8.20
2021,06,08,03,28,8.20
2021,06,08,03,29,8.20
2021,06,08,03,30,8.20
2021,06,08,03,31,8.20
2021,06,08,03,32,8.20
2021,06,08,03,33,8.20
2021,06,08,03,34,8.20
2021,06,08,03,35,8.20
2021,06,08,03,36,8.20
2021,06,08,03,37,8.20
2021,06,08,03,38,8.10
2021,06,08,03,39,8.10
2021,06,08,03,40,8.10
2021,06,08,03,41,8.00
2021,06,08,03,42,8.00
2021,06,08,03,43,8.00
2021,06,08,03,44,7.90
2021,06,08,03,45,7.90
2021,06,08,03,46,7.90
2021,06,08,03,47,8.00
2021,06,08,03,48,8.00
2021,06,08,03,49,8.00
2021,06,08,03,50,8.00
2021,06,08,03,51,8.10
2021,06,08,03,52,8.10
2021,06,08,03,53,8.20
2021,06,08,03,54,8.20
2021,06,08,03,55,8.20
2021,06,08,03,56,8.20
2021,06,08,03,57,8.30
2021,06,08,03,58,8.30
2021,06,08,03,59,8.30
2021,06,08,04,00,8.30
2021,06,08,04,01,8.30
2021,06,08,04,02,8.30
2021,06,08,04,03,8.30
2021,06,08,04,04,8.30
2021,06,08,04,05,8.30
2021,06,08,04,06,8.30
2021,06,08,04,07,8.20
2021,06,08,04,08,8.20
2021,06,08,04,09,8.20
2021,06,08,04,10,8.10
2021,06,08,04,11,8.10
2021,06,08,04,12,8.00
2021,06,08,04,13,8.00
2021,06,08,04,14,8.00
2021,06,08,04,15,8.00
2021,06,08,04,16,7.90
2021,06,08,04,17,7.90
2021,06,08,04,18,7.90
2021,06,08,04,19,7.80
2021,06,08,04,20,7.80
2021,06,08,04,21,7.80
2021,06,08,04,22,7.80
2021,06,08,04,23,7.80
2021,06,08,04,24,7.80
2021,06,08,04,25,7.70
2021,06,08,04,26,7.70
2021,06,08,04,27,7.70
2021,06,08,04,28,7.70
2021,06,08,04,29,7.60
2021,06,08,04,30,7.60
2021,06,08,04,31,7.60
2021,06,08,04,32,7.60
2021,06,08,04,33,7.60
2021,06,08,04,34,7.70
2021,06,08,04,35,7.80
2021,06,08,04,36,7.80
2021,06,08,04,37,7.90
2021,06,08,04,38,8.00
2021,06,08,04,39,8.00
2021,06,08,04,40,8.10
2021,06,08,04,41,8.10
2021,06,08,04,42,8.10
2021,06,08,04,43,8.00
2021,06,08,04,44,8.00
2021,06,08,04,45,8.00
2021,06,08,04,46,7.90
2021,06,08,04,47,7.90
2021,06,08,04,48,7.90
2021,06,08,04,49,7.90
2021,06,08,04,50,7.80
2021,06,08,04,51,7.80
2021,06,08,04,52,7.80
2021,06,08,04,53,7.90
2021,06,08,04,54,7.90
2021,06,08,04,55,7.90
2021,06,08,04,56,7.90
2021,06,08,04,57,7.90
2021,06,08,04,58,7.80
2021,06,08,04,59,7.80
2021,06,08,05,00,7.80
2021,06,08,05,01,7.80
2021,06,08,05,02,7.80
2021,06,08,05,03,7.80
2021,06,08,05,04,7.80
2021,06,08,05,05,7.80
2021,06,08,05,06,7.80
2021,06,08,05,07,7.80
2021,06,08,05,08,7.80
2021,06,08,05,09,7.70
2021,06,08,05,10,7.70
2021,06,08,05,11,7.70
2021,06,08,05,12,7.70
2021,06,08,05,13,7.60
2021,06,08,05,14,7.60
2021,06,08,05,15,7.60
2021,06,08,05,16,7.60
2021,06,08,05,17,7.60
2021,06,08,05,18,7.70
2021,06,08,05,19,7.70
2021,06,08,05,20,7.70
2021,06,08,05,21,7.70
2021,06,08,05,22,7.80
2021,06,08,05,23,7.80
2021,06,08,05,24,7.80
2021,06,08,05,25,7.80
2021,06,08,05,26,7.80
2021,06,08,05,27,7.80
2021,06,08,05,28,7.80
2021,06,08,05,29,7.80
2021,06,08,05,30,7.80
2021,06,08,05,31,7.80
2021,06,08,05,32,7.80
2021,06,08,05,33,7.80
2021,06,08,05,34,7.80
2021,06,08,05,35,7.80
2021,06,08,05,36,7.80
2021,06,08,05,37,7.80
2021,06,08,05,38,7.90
2021,06,08,05,39,7.90
2021,06,08,05,40,7.90
2021,06,08,05,41,8.00
2021,06,08,05,42,8.00
2021,06,08,05,43,8.00
2021,06,08,05,44,8.00
2021,06,08,05,45,8.00
2021,06,08,05,46,8.00
2021,06,08,05,47,8.10
2021,06,08,05,48,8.10
2021,06,08,05,49,8.10
2021,06,08,05,50,8.10
2021,06,08,05,51,8.10
2021,06,08,05,52,8.10
2021,06,08,05,53,8.20
2021,06,08,05,54,8.20
2021,06,08,05,55,8.20
2021,06,08,05,56,8.20
2021,06,08,05,57,8.20
2021,06,08,05,58,8.30
2021,06,08,05,59,8.30
2021,06,08,06,00,8.30
2021,06,08,06,01,8.40
2021,06,08,06,02,8.40
2021,06,08,06,03,8.50
2021,06,08,06,04,8.50
2021,06,08,06,05,8.60
2021,06,08,06,06,8.60
2021,06,08,06,07,8.70
2021,06,08,06,08,8.70
2021,06,08,06,09,8.80
2021,06,08,06,10,8.90
2021,06,08,06,11,8.90
2021,06,08,06,12,9.00
2021,06,08,06,13,9.10
2021,06,08,06,14,9.10
2021,06,08,06,15,9.20
2021,06,08,06,16,9.20
2021,06,08,06,17,9.20
2021,06,08,06,18,9.20
2021,06,08,06,19,9.20
2021,06,08,06,20,9.20
2021,06,08,06,21,9.20
2021,06,08,06,22,9.30
2021,06,08,06,23,9.30
2021,06,08,06,24,9.30
2021,06,08,06,25,9.30
2021,06,08,06,26,9.40
2021,06,08,06,27,9.40
2021,06,08,06,28,9.50
2021,06,08,06,29,9.50
2021,06,08,06,30,9.60
2021,06,08,06,31,9.60
2021,06,08,06,32,9.70
2021,06,08,06,33,9.70
2021,06,08,06,34,9.70
2021,06,08,06,35,9.70
2021,06,08,06,36,9.70
2021,06,08,06,37,9.80
2021,06,08,06,38,9.80
2021,06,08,06,39,9.80
2021,06,08,06,40,9.90
2021,06,08,06,41,9.90
2021,06,08,06,42,9.90
2021,06,08,06,43,10.00
2021,06,08,06,44,10.10
2021,06,08,06,45,10.10
2021,06,08,06,46,10.10
2021,06,08,06,47,10.20
2021,06,08,06,48,10.30
2021,06,08,06,49,10.30
2021,06,08,06,50,10.40
2021,06,08,06,51,10.40
2021,06,08,06,52,10.60
2021,06,08,06,53,10.60
2021,06,08,06,54,10.70
2021,06,08,06,55,10.70
2021,06,08,06,56,10.80
2021,06,08,06,57,10.90
2021,06,08,06,58,10.90
2021,06,08,06,59,10.90
2021,06,08,07,00,10.90
2021,06,08,07,01,10.90
2021,06,08,07,02,10.90
2021,06,08,07,03,11.00
2021,06,08,07,04,11.10
2021,06,08,07,05,11.10
2021,06,08,07,06,11.10
2021,06,08,07,07,11.20
2021,06,08,07,08,11.20
2021,06,08,07,09,11.30
2021,06,08,07,10,11.40
2021,06,08,07,11,11.40
2021,06,08,07,12,11.40
2021,06,08,07,13,11.40
2021,06,08,07,14,11.40
2021,06,08,07,15,11.40
2021,06,08,07,16,11.40
2021,06,08,07,17,11.40
2021,06,08,07,18,11.60
2021,06,08,07,19,11.60
2021,06,08,07,20,11.60
2021,06,08,07,21,11.60
2021,06,08,07,22,11.70
2021,06,08,07,23,11.80
2021,06,08,07,24,11.80
2021,06,08,07,25,11.80
2021,06,08,07,26,11.80
2021,06,08,07,27,11.90
2021,06,08,07,28,11.90
2021,06,08,07,29,12.00
2021,06,08,07,30,12.00
2021,06,08,07,31,12.00
2021,06,08,07,32,12.00
2021,06,08,07,33,11.90
2021,06,08,07,34,11.90
2021,06,08,07,35,12.00
2021,06,08,07,36,12.00
2021,06,08,07,37,12.00
2021,06,08,07,38,12.00
2021,06,08,07,39,12.00
2021,06,08,07,40,12.00
2021,06,08,07,41,12.00
2021,06,08,07,42,11.90
2021,06,08,07,43,11.90
2021,06,08,07,44,11.90
2021,06,08,07,45,11.90
2021,06,08,07,46,11.90
2021,06,08,07,47,12.00
2021,06,08,07,48,12.10
2021,06,08,07,49,12.10
2021,06,08,07,50,12.20
2021,06,08,07,51,12.30
2021,06,08,07,52,12.30
2021,06,08,07,53,12.30
2021,06,08,07,54,12.40
2021,06,08,07,55,12.50
2021,06,08,07,56,12.50
2021,06,08,07,57,12.50
2021,06,08,07,58,12.50
2021,06,08,07,59,12.50
2021,06,08,08,00,12.50
2021,06,08,08,01,12.50
2021,06,08,08,02,12.60
2021,06,08,08,03,12.60
2021,06,08,08,04,12.70
2021,06,08,08,05,12.80
2021,06,08,08,06,12.80
2021,06,08,08,07,12.80
2021,06,08,08,08,12.80
2021,06,08,08,09,12.90
2021,06,08,08,10,12.90
2021,06,08,08,11,13.00
2021,06,08,08,12,13.00
2021,06,08,08,13,13.10
2021,06,08,08,14,13.10
2021,06,08,08,15,13.20
2021,06,08,08,16,13.30
2021,06,08,08,17,13.30
2021,06,08,08,18,13.30
2021,06,08,08,19,13.30
2021,06,08,08,20,13.30
2021,06,08,08,21,13.30
2021,06,08,08,22,13.40
2021,06,08,08,23,13.40
2021,06,08,08,24,13.40
2021,06,08,08,25,13.40
2021,06,08,08,26,13.40
2021,06,08,08,27,13.50
2021,06,08,08,28,13.50
2021,06,08,08,29,13.50
2021,06,08,08,30,13.50
2021,06,08,08,31,13.60
2021,06,08,08,32,13.60
2021,06,08,08,33,13.70
2021,06,08,08,34,13.70
2021,06,08,08,35,13.80
2021,06,08,08,36,13.80
2021,06,08,08,37,13.90
2021,06,08,08,38,13.90
2021,06,08,08,39,14.00
2021,06,08,08,40,14.00
2021,06,08,08,41,14.00
2021,06,08,08,42,14.10
2021,06,08,08,43,14.10
2021,06,08,08,44,14.10
2021,06,08,08,45,14.00
2021,06,08,08,46,13.90
2021,06,08,08,47,13.80
2021,06,08,08,48,13.70
2021,06,08,08,49,13.70
2021,06,08,08,50,13.70
2021,06,08,08,51,13.80
2021,06,08,08,52,13.90
2021,06,08,08,53,14.00
2021,06,08,08,54,14.00
2021,06,08,08,55,14.00
2021,06,08,08,56,14.00
2021,06,08,08,57,14.10
2021,06,08,08,58,14.20
2021,06,08,08,59,14.20
2021,06,08,09,00,14.20
2021,06,08,09,01,14.30
2021,06,08,09,02,14.30
2021,06,08,09,03,14.40
2021,06,08,09,04,14.40
2021,06,08,09,05,14.20
2021,06,08,09,06,14.10
2021,06,08,09,07,14.00
2021,06,08,09,08,13.90
2021,06,08,09,09,13.90
2021,06,08,09,10,13.80
2021,06,08,09,11,13.80
2021,06,08,09,12,13.70
2021,06,08,09,13,13.60
2021,06,08,09,14,13.70
2021,06,08,09,15,13.70
2021,06,08,09,16,13.70
2021,06,08,09,17,13.70
2021,06,08,09,18,13.70
2021,06,08,09,19,13.50
2021,06,08,09,20,13.40
2021,06,08,09,21,13.30
2021,06,08,09,22,13.30
2021,06,08,09,23,13.30
2021,06,08,09,24,13.20
2021,06,08,09,25,13.10
2021,06,08,09,26,13.00
2021,06,08,09,27,12.90
2021,06,08,09,28,12.90
2021,06,08,09,29,12.90
2021,06,08,09,30,12.90
2021,06,08,09,31,12.80
2021,06,08,09,32,12.70
2021,06,08,09,33,12.50
2021,06,08,09,34,12.40
2021,06,08,09,35,12.30
2021,06,08,09,36,12.30
2021,06,08,09,37,12.40
2021,06,08,09,38,12.40
2021,06,08,09,39,12.40
2021,06,08,09,40,12.40
2021,06,08,09,41,12.50
2021,06,08,09,42,12.60
2021,06,08,09,43,12.70
2021,06,08,09,44,12.90
2021,06,08,09,45,13.00
2021,06,08,09,46,13.10
2021,06,08,09,47,13.30
2021,06,08,09,48,13.40
2021,06,08,09,49,13.50
2021,06,08,09,50,13.60
2021,06,08,09,51,13.50
2021,06,08,09,52,13.50
2021,06,08,09,53,13.50
2021,06,08,09,54,13.50
2021,06,08,09,55,13.60
2021,06,08,09,56,13.60
2021,06,08,09,57,13.60
2021,06,08,09,58,13.70
2021,06,08,09,59,13.70
2021,06,08,10,00,13.60
2021,06,08,10,01,13.70
2021,06,08,10,02,13.70
2021,06,08,10,03,13.70
2021,06,08,10,04,13.70
2021,06,08,10,05,13.70
2021,06,08,10,06,13.80
2021,06,08,10,07,13.80
2021,06,08,10,08,13.70
2021,06,08,10,09,13.70
2021,06,08,10,10,13.50
2021,06,08,10,11,13.50
2021,06,08,10,12,13.50
2021,06,08,10,13,13.60
2021,06,08,10,14,13.60
2021,06,08,10,15,13.60
2021,06,08,10,16,13.50
2021,06,08,10,17,13.50
2021,06,08,10,18,13.50
2021,06,08,10,19,13.50
2021,06,08,10,20,13.60
2021,06,08,10,21,13.70
2021,06,08,10,22,13.70
2021,06,08,10,23,13.80
2021,06,08,10,24,13.80
2021,06,08,10,25,13.90
2021,06,08,10,26,13.80
2021,06,08,10,27,13.80
2021,06,08,10,28,13.70
2021,06,08,10,29,13.60
2021,06,08,10,30,13.50
2021,06,08,10,31,13.50
2021,06,08,10,32,13.50
2021,06,08,10,33,13.50
2021,06,08,10,34,13.60
2021,06,08,10,35,13.70
2021,06,08,10,36,13.70
2021,06,08,10,37,13.60
2021,06,08,10,38,13.60
2021,06,08,10,39,13.60
2021,06,08,10,40,13.60
2021,06,08,10,41,13.50
2021,06,08,10,42,13.50
2021,06,08,10,43,13.60
2021,06,08,10,44,13.70
2021,06,08,10,45,13.70
2021,06,08,10,46,13.80
2021,06,08,10,47,13.90
2021,06,08,10,48,13.90
2021,06,08,10,49,13.80
2021,06,08,10,50,13.70
2021,06,08,10,51,13.70
2021,06,08,10,52,13.60
2021,06,08,10,53,13.40
2021,06,08,10,54,13.30
2021,06,08,10,55,13.40
2021,06,08,10,56,13.40
2021,06,08,10,57,13.50
2021,06,08,10,58,13.50
2021,06,08,10,59,13.60
2021,06,08,11,00,13.60
2021,06,08,11,01,13.60
2021,06,08,11,02,13.60
2021,06,08,11,03,13.70
2021,06,08,11,04,13.60
2021,06,08,11,05,13.50
2021,06,08,11,06,13.40
2021,06,08,11,07,13.30
2021,06,08,11,08,13.20
2021,06,08,11,09,13.10
2021,06,08,11,10,13.00
2021,06,08,11,11,13.00
2021,06,08,11,12,13.00
2021,06,08,11,13,13.00
2021,06,08,11,14,13.10
2021,06,08,11,15,13.20
2021,06,08,11,16,13.20
2021,06,08,11,17,13.20
2021,06,08,11,18,13.20
2021,06,08,11,19,13.40
2021,06,08,11,20,13.60
2021,06,08,11,21,13.70
2021,06,08,11,22,13.90
2021,06,08,11,23,13.90
2021,06,08,11,24,13.70
2021,06,08,11,25,13.70
2021,06,08,11,26,13.70
2021,06,08,11,27,13.70
2021,06,08,11,28,13.60
2021,06,08,11,29,13.50
2021,06,08,11,30,13.50
2021,06,08,11,31,13.50
2021,06,08,11,32,13.50
2021,06,08,11,33,13.70
2021,06,08,11,34,13.70
2021,06,08,11,35,13.70
2021,06,08,11,36,13.80
2021,06,08,11,37,14.00
2021,06,08,11,38,14.10
2021,06,08,11,39,14.20
2021,06,08,11,40,14.20
2021,06,08,11,41,14.20
2021,06,08,11,42,14.10
2021,06,08,11,43,14.00
2021,06,08,11,44,14.10
2021,06,08,11,45,14.20
2021,06,08,11,46,14.10
2021,06,08,11,47,14.00
2021,06,08,11,48,13.90
2021,06,08,11,49,14.00
2021,06,08,11,50,14.10
2021,06,08,11,51,14.20
2021,06,08,11,52,14.40
2021,06,08,11,53,14.50
2021,06,08,11,54,14.60
2021,06,08,11,55,14.70
2021,06,08,11,56,14.80
2021,06,08,11,57,14.90
2021,06,08,11,58,14.90
2021,06,08,11,59,14.90
2021,06,08,12,00,14.70
2021,06,08,12,01,14.60
2021,06,08,12,02,14.60
2021,06,08,12,03,14.50
2021,06,08,12,04,14.40
2021,06,08,12,05,14.20
2021,06,08,12,06,14.30
2021,06,08,12,07,14.30
2021,06,08,12,08,14.20
2021,06,08,12,09,14.20
2021,06,08,12,10,14.10
2021,06,08,12,11,13.90
2021,06,08,12,12,13.80
2021,06,08,12,13,13.70
2021,06,08,12,14,13.60
2021,06,08,12,15,13.70
2021,06,08,12,16,13.70
2021,06,08,12,17,13.60
2021,06,08,12,18,13.50
2021,06,08,12,19,13.50
2021,06,08,12,20,13.50
2021,06,08,12,21,13.60
2021,06,08,12,22,13.70
2021,06,08,12,23,13.70
2021,06,08,12,24,13.70
2021,06,08,12,25,13.70
2021,06,08,12,26,13.60
2021,06,08,12,27,13.60
2021,06,08,12,28,13.70
2021,06,08,12,29,13.70
2021,06,08,12,30,13.80
2021,06,08,12,31,13.80
2021,06,08,12,32,13.80
2021,06,08,12,33,13.70
2021,06,08,12,34,13.70
2021,06,08,12,35,13.60
2021,06,08,12,36,13.60
2021,06,08,12,37,13.80
2021,06,08,12,38,13.80
2021,06,08,12,39,13.90
2021,06,08,12,40,13.90
2021,06,08,12,41,14.00
2021,06,08,12,42,14.00
2021,06,08,12,43,14.00
2021,06,08,12,44,14.10
2021,06,08,12,45,14.30
2021,06,08,12,46,14.50
2021,06,08,12,47,14.70
2021,06,08,12,48,14.80
2021,06,08,12,49,14.80
2021,06,08,12,50,14.80
2021,06,08,12,51,14.80
2021,06,08,12,52,14.80
2021,06,08,12,53,14.80
2021,06,08,12,54,14.80
2021,06,08,12,55,14.80
2021,06,08,12,56,14.80
2021,06,08,12,57,14.90
2021,06,08,12,58,15.00
2021,06,08,12,59,15.00
2021,06,08,13,00,15.00
2021,06,08,13,01,14.90
2021,06,08,13,02,14.70
2021,06,08,13,03,14.70
2021,06,08,13,04,14.70
2021,06,08,13,05,14.70
2021,06,08,13,06,14.80
2021,06,08,13,07,14.80
2021,06,08,13,08,15.00
2021,06,08,13,09,15.10
2021,06,08,13,10,15.30
2021,06,08,13,11,15.40
2021,06,08,13,12,15.40
2021,06,08,13,13,15.30
2021,06,08,13,14,15.10
2021,06,08,13,15,15.10
2021,06,08,13,16,15.10
2021,06,08,13,17,15.10
2021,06,08,13,18,15.10
2021,06,08,13,19,15.30
2021,06,08,13,20,15.40
2021,06,08,13,21,15.40
2021,06,08,13,22,15.40
2021,06,08,13,23,15.40
2021,06,08,13,24,15.50
2021,06,08,13,25,15.50
2021,06,08,13,26,15.50
2021,06,08,13,27,15.70
2021,06,08,13,28,15.60
2021,06,08,13,29,15.50
2021,06,08,13,30,15.60
2021,06,08,13,31,15.50
2021,06,08,13,32,15.50
2021,06,08,13,33,15.50
2021,06,08,13,34,15.30
2021,06,08,13,35,15.20
2021,06,08,13,36,15.20
2021,06,08,13,37,15.30
2021,06,08,13,38,15.30
2021,06,08,13,39,15.30
2021,06,08,13,40,15.30
2021,06,08,13,41,15.40
2021,06,08,13,42,15.40
2021,06,08,13,43,15.30
2021,06,08,13,44,15.30
2021,06,08,13,45,15.30
2021,06,08,13,46,15.30
2021,06,08,13,47,15.50
2021,06,08,13,48,15.60
2021,06,08,13,49,15.60
2021,06,08,13,50,15.60
2021,06,08,13,51,15.60
2021,06,08,13,52,15.60
2021,06,08,13,53,15.50
2021,06,08,13,54,15.50
2021,06,08,13,55,15.40
2021,06,08,13,56,15.30
2021,06,08,13,57,15.30
2021,06,08,13,58,15.30
2021,06,08,13,59,15.30
2021,06,08,14,00,15.40
2021,06,08,14,01,15.40
2021,06,08,14,02,15.50
2021,06,08,14,03,15.50
2021,06,08,14,04,15.50
2021,06,08,14,05,15.60
2021,06,08,14,06,15.60
2021,06,08,14,07,15.70
2021,06,08,14,08,15.80
2021,06,08,14,09,15.80
2021,06,08,14,10,15.80
2021,06,08,14,11,15.70
2021,06,08,14,12,15.60
2021,06,08,14,13,15.50
2021,06,08,14,14,15.50
2021,06,08,14,15,15.60
2021,06,08,14,16,15.50
2021,06,08,14,17,15.60
2021,06,08,14,18,15.60
2021,06,08,14,19,15.60
2021,06,08,14,20,15.70
2021,06,08,14,21,15.80
2021,06,08,14,22,16.00
2021,06,08,14,23,16.10
2021,06,08,14,24,16.20
2021,06,08,14,25,16.40
2021,06,08,14,26,16.60
2021,06,08,14,27,16.70
2021,06,08,14,28,16.70
2021,06,08,14,29,16.60
2021,06,08,14,30,16.30
2021,06,08,14,31,16.20
2021,06,08,14,32,16.10
2021,06,08,14,33,16.00
2021,06,08,14,34,15.90
2021,06,08,14,35,15.90
2021,06,08,14,36,15.80
2021,06,08,14,37,15.60
2021,06,08,14,38,15.60
2021,06,08,14,39,15.60
2021,06,08,14,40,15.60
2021,06,08,14,41,15.50
2021,06,08,14,42,15.50
2021,06,08,14,43,15.60
2021,06,08,14,44,15.70
2021,06,08,14,45,15.80
2021,06,08,14,46,15.80
2021,06,08,14,47,15.80
2021,06,08,14,48,15.70
2021,06,08,14,49,15.70
2021,06,08,14,50,15.80
2021,06,08,14,51,16.00
2021,06,08,14,52,16.10
2021,06,08,14,53,16.00
2021,06,08,14,54,15.80
2021,06,08,14,55,15.70
2021,06,08,14,56,15.60
2021,06,08,14,57,15.50
2021,06,08,14,58,15.40
2021,06,08,14,59,15.40
2021,06,08,15,00,15.50
2021,06,08,15,01,15.50
2021,06,08,15,02,15.70
2021,06,08,15,03,15.80
2021,06,08,15,04,15.90
2021,06,08,15,05,15.90
2021,06,08,15,06,16.00
2021,06,08,15,07,16.10
2021,06,08,15,08,16.10
2021,06,08,15,09,15.90
2021,06,08,15,10,15.80
2021,06,08,15,11,15.80
2021,06,08,15,12,15.60
2021,06,08,15,13,15.40
2021,06,08,15,14,15.20
2021,06,08,15,15,15.10
2021,06,08,15,16,15.10
2021,06,08,15,17,15.20
2021,06,08,15,18,15.00
2021,06,08,15,19,14.90
2021,06,08,15,20,14.90
2021,06,08,15,21,14.70
2021,06,08,15,22,14.50
2021,06,08,15,23,14.40
2021,06,08,15,24,14.30
2021,06,08,15,25,14.30
2021,06,08,15,26,14.40
2021,06,08,15,27,14.50
2021,06,08,15,28,14.50
2021,06,08,15,29,14.60
2021,06,08,15,30,14.90
2021,06,08,15,31,15.10
2021,06,08,15,32,15.20
2021,06,08,15,33,15.10
2021,06,08,15,34,15.00
2021,06,08,15,35,14.80
2021,06,08,15,36,14.80
2021,06,08,15,37,14.80
2021,06,08,15,38,14.80
2021,06,08,15,39,14.80
2021,06,08,15,40,14.80
2021,06,08,15,41,14.80
2021,06,08,15,42,15.00
2021,06,08,15,43,15.00
2021,06,08,15,44,15.00
2021,06,08,15,45,15.00
2021,06,08,15,46,15.00
2021,06,08,15,47,15.10
2021,06,08,15,48,15.20
2021,06,08,15,49,15.20
2021,06,08,15,50,15.30
2021,06,08,15,51,15.30
2021,06,08,15,52,15.00
2021,06,08,15,53,14.70
2021,06,08,15,54,14.60
2021,06,08,15,55,14.30
2021,06,08,15,56,14.00
2021,06,08,15,57,13.90
2021,06,08,15,58,13.70
2021,06,08,15,59,13.70
2021,06,08,16,00,13.70
2021,06,08,16,01,13.70
2021,06,08,16,02,13.70
2021,06,08,16,03,13.80
2021,06,08,16,04,14.00
2021,06,08,16,05,14.20
2021,06,08,16,06,14.30
2021,06,08,16,07,14.40
2021,06,08,16,08,14.40
2021,06,08,16,09,14.50
2021,06,08,16,10,14.50
2021,06,08,16,11,14.30
2021,06,08,16,12,14.20
2021,06,08,16,13,14.20
2021,06,08,16,14,14.20
2021,06,08,16,15,14.30
2021,06,08,16,16,14.40
2021,06,08,16,17,14.40
2021,06,08,16,18,14.40
2021,06,08,16,19,14.40
2021,06,08,16,20,14.50
2021,06,08,16,21,14.50
2021,06,08,16,22,14.50
2021,06,08,16,23,14.60
2021,06,08,16,24,14.60
2021,06,08,16,25,14.70
2021,06,08,16,26,14.70
2021,06,08,16,27,14.80
2021,06,08,16,28,14.80
2021,06,08,16,29,14.80
2021,06,08,16,30,14.80
2021,06,08,16,31,14.80
2021,06,08,16,32,14.80
2021,06,08,16,33,14.80
2021,06,08,16,34,14.80
2021,06,08,16,35,14.80
2021,06,08,16,36,14.80
2021,06,08,16,37,14.80
2021,06,08,16,38,14.80
2021,06,08,16,39,14.70
2021,06,08,16,40,14.60
2021,06,08,16,41,14.40
2021,06,08,16,42,14.30
2021,06,08,16,43,14.20
2021,06,08,16,44,14.20
2021,06,08,16,45,14.20
2021,06,08,16,46,14.20
2021,06,08,16,47,14.20
2021,06,08,16,48,14.20
2021,06,08,16,49,14.20
2021,06,08,16,50,14.20
2021,06,08,16,51,14.20
2021,06,08,16,52,14.20
2021,06,08,16,53,14.20
2021,06,08,16,54,14.20
2021,06,08,16,55,14.20
2021,06,08,16,56,14.20
2021,06,08,16,57,14.20
2021,06,08,16,58,14.20
2021,06,08,16,59,14.20
2021,06,08,17,00,14.30
2021,06,08,17,01,14.20
2021,06,08,17,02,14.30
2021,06,08,17,03,14.30
2021,06,08,17,04,14.30
2021,06,08,17,05,14.30
2021,06,08,17,06,14.30
2021,06,08,17,07,14.40
2021,06,08,17,08,14.40
2021,06,08,17,09,14.40
2021,06,08,17,10,14.30
2021,06,08,17,11,14.30
2021,06,08,17,12,14.30
2021,06,08,17,13,14.30
2021,06,08,17,14,14.30
2021,06,08,17,15,14.30
2021,06,08,17,16,14.40
2021,06,08,17,17,14.40
2021,06,08,17,18,14.40
2021,06,08,17,19,14.40
2021,06,08,17,20,14.40
2021,06,08,17,21,14.50
2021,06,08,17,22,14.50
2021,06,08,17,23,14.50
2021,06,08,17,24,14.60
2021,06,08,17,25,14.70
2021,06,08,17,26,14.70
2021,06,08,17,27,14.70
2021,06,08,17,28,14.70
2021,06,08,17,29,14.70
2021,06,08,17,30,14.80
2021,06,08,17,31,14.80
2021,06,08,17,32,14.80
2021,06,08,17,33,14.90
2021,06,08,17,34,14.90
2021,06,08,17,35,15.00
2021,06,08,17,36,15.00